TimeCDT,TemperatureF,Dew PointF,Humidity,Sea Level PressureIn,VisibilityMPH,Wind Direction,Wind SpeedMPH,Gust SpeedMPH,PrecipitationIn,Events,Conditions,WindDirDegrees,DateUTC
12:53 AM,75.0,72.0,90,30.04,10.0,Calm,Calm,-,N/A,,Clear,0,2013-09-17 05:53:00
1:53 AM,75.0,73.0,94,30.03,10.0,NNW,3.5,-,N/A,,Overcast,330,2013-09-17 06:53:00
2:53 AM,73.9,72.0,93,30.02,10.0,Calm,Calm,-,N/A,,Scattered Clouds,0,2013-09-17 07:53:00
3:53 AM,73.0,72.0,96,30.02,10.0,Calm,Calm,-,N/A,,Clear,0,2013-09-17 08:53:00
4:53 AM,73.9,72.0,93,30.03,10.0,Calm,Calm,-,N/A,,Mostly Cloudy,0,2013-09-17 09:53:00
5:53 AM,73.0,71.1,93,30.04,10.0,NE,4.6,-,N/A,,Scattered Clouds,50,2013-09-17 10:53:00
6:53 AM,73.0,71.1,93,30.06,10.0,NE,6.9,-,N/A,,Mostly Cloudy,50,2013-09-17 11:53:00
7:53 AM,75.0,72.0,90,30.07,10.0,East,5.8,-,N/A,,Scattered Clouds,80,2013-09-17 12:53:00
8:43 AM,78.8,73.4,83,30.08,10.0,ENE,6.9,-,N/A,,Scattered Clouds,70,2013-09-17 13:43:00
8:53 AM,79.0,73.0,82,30.08,10.0,NE,8.1,-,N/A,,Mostly Cloudy,50,2013-09-17 13:53:00
9:53 AM,82.9,73.0,72,30.09,10.0,ESE,5.8,-,N/A,,Clear,120,2013-09-17 14:53:00
10:53 AM,86.0,73.9,67,30.09,10.0,Variable,6.9,-,N/A,,Clear,0,2013-09-17 15:53:00
11:53 AM,89.1,73.0,59,30.07,10.0,East,6.9,-,N/A,,Clear,90,2013-09-17 16:53:00
12:53 PM,90.0,71.1,54,30.05,10.0,East,10.4,-,N/A,,Scattered Clouds,80,2013-09-17 17:53:00
1:53 PM,91.0,72.0,53,30.02,10.0,East,9.2,20.7,N/A,,Partly Cloudy,80,2013-09-17 18:53:00
2:53 PM,91.9,70.0,48,30.00,10.0,ESE,12.7,19.6,N/A,,Clear,120,2013-09-17 19:53:00
3:53 PM,89.1,71.1,55,29.99,10.0,ENE,11.5,-,N/A,,Partly Cloudy,70,2013-09-17 20:53:00
4:53 PM,91.0,69.1,48,29.98,10.0,ENE,12.7,-,N/A,,Clear,60,2013-09-17 21:53:00
5:53 PM,88.0,70.0,55,29.99,10.0,NE,9.2,-,N/A,,Clear,50,2013-09-17 22:53:00
6:53 PM,82.9,71.1,67,30.00,10.0,ENE,6.9,-,N/A,,Clear,70,2013-09-17 23:53:00
7:08 PM,82.4,71.6,70,30.01,10.0,East,5.8,-,N/A,,Scattered Clouds,80,2013-09-18 00:08:00
7:53 PM,82.0,71.1,69,30.03,10.0,ENE,11.5,-,N/A,,Partly Cloudy,70,2013-09-18 00:53:00
8:53 PM,81.0,71.1,72,30.06,10.0,ENE,11.5,-,N/A,,Partly Cloudy,70,2013-09-18 01:53:00
9:53 PM,79.0,71.1,77,30.06,10.0,East,12.7,-,N/A,,Clear,80,2013-09-18 02:53:00
10:53 PM,78.1,69.1,74,30.07,10.0,East,10.4,-,N/A,,Clear,80,2013-09-18 03:53:00
11:53 PM,75.9,69.1,79,30.08,10.0,East,11.5,18.4,N/A,,Partly Cloudy,80,2013-09-18 04:53:00